EW8476 Weather Reports


Display with metric or nautical units.
time (UTC)temp
F
wind
direction
speed
MPH
gust
MPH
rain 1hr
in
rain 24hr
in
rain mn
in
humidity
%
barometer
mb
20200401055043 58 127 2.0 9.0 0.00 0.00 0.00 31 1015.1
20200401054035 58 116 3.0 7.0 0.00 0.00 0.00 31 1014.9
20200401053027 58 123 1.0 9.0 0.00 0.00 0.00 31 1014.9
20200401052019 59 121 1.0 4.0 0.00 0.00 0.00 30 1015.0
20200401051103 59 126 2.0 7.0 0.00 0.00 0.00 29 1015.4
20200401050035 59 123 0.0 4.0 0.00 0.00 0.00 28 1015.4
20200401045027 59 122 0.0 4.0 0.00 0.00 0.00 28 1015.3
20200401044039 59 125 0.0 2.0 0.00 0.00 0.00 27 1015.6
20200401043040 59 107 0.0 2.0 0.00 0.00 0.00 27 1015.6
20200401042035 59 117 0.0 2.0 0.00 0.00 0.00 26 1015.5
20200401041048 60 62 0.0 7.0 0.00 0.00 0.00 25 1015.6
20200401040019 60 77 0.0 9.0 0.00 0.00 0.00 24 1015.8
20200401035043 60 87 0.0 4.0 0.00 0.00 0.00 24 1015.9
20200401034035 60 69 0.0 4.0 0.00 0.00 0.00 24 1016.2
20200401033027 60 112 0.0 2.0 0.00 0.00 0.00 23 1016.3
20200401032019 60 105 0.0 4.0 0.00 0.00 0.00 23 1016.4
20200401031043 60 113 0.0 2.0 0.00 0.00 0.00 22 1016.3
20200401030035 60 103 0.0 2.0 0.00 0.00 0.00 23 1016.2
20200401025016 60 108 0.0 2.0 0.00 0.00 0.00 23 1016.1
20200401024018 61 113 0.0 2.0 0.00 0.00 0.00 23 1016.3
20200401023033 61 91 0.0 2.0 0.00 0.00 0.00 23 1016.1
20200401022034 61 0.0 0.0 0.00 0.00 0.00 23 1016.2
20200401021026 61 0.0 0.0 0.00 0.00 0.00 22 1016.0
20200401020019 61 74 0.0 2.0 0.00 0.00 0.00 22 1015.9
20200401015023 61 0.0 0.0 0.00 0.00 0.00 21 1015.8
20200401014034 61 0.0 0.0 0.00 0.00 0.00 21 1015.8
20200401013026 62 0.0 0.0 0.00 0.00 0.00 21 1015.6
20200401012019 63 0.0 0.0 0.00 0.00 0.00 20 1015.5
20200401011042 64 0.0 0.0 0.00 0.00 0.00 18 1015.6
20200401010020 65 0.0 0.0 0.00 0.00 0.00 23 1015.6
20200401005027 66 0.0 0.0 0.00 0.00 0.00 22 1015.6
20200401004019 67 0.0 0.0 0.00 0.00 0.00 21 1015.7
20200401003043 67 0.0 0.0 0.00 0.00 0.00 18 1015.6
20200401002035 68 79 0.0 2.0 0.00 0.00 0.00 16 1015.7
20200401001030 68 54 1.0 4.0 0.00 0.00 0.00 15 1015.6
20200401000019 68 53 1.0 4.0 0.00 0.00 0.00 14 1015.6
20200331235042 68 86 0.0 4.0 0.00 0.00 0.00 14 1015.4
20200331234035 69 57 2.0 7.0 0.00 0.00 0.00 14 1015.6
20200331233023 69 71 1.0 7.0 0.00 0.00 0.00 14 1015.6
20200331232018 69 57 1.0 2.0 0.00 0.00 0.00 14 1015.6
20200331231043 69 33 1.0 4.0 0.00 0.00 0.00 14 1015.6
20200331230021 69 17 1.0 4.0 0.00 0.00 0.00 14 1015.5
20200331225026 69 38 4.0 7.0 0.00 0.00 0.00 14 1015.3
20200331224018 69 74 0.0 2.0 0.00 0.00 0.00 14 1015.5
20200331223042 69 54 2.0 7.0 0.00 0.00 0.00 14 1015.5
20200331222034 69 43 3.0 7.0 0.00 0.00 0.00 14 1015.4
20200331221027 69 44 3.0 7.0 0.00 0.00 0.00 14 1015.6
20200331220017 69 62 2.0 7.0 0.00 0.00 0.00 14 1015.6
20200331215042 68 66 2.0 7.0 0.00 0.00 0.00 14 1015.7
20200331214034 68 59 3.0 7.0 0.00 0.00 0.00 14 1015.8
20200331213016 68 60 1.0 7.0 0.00 0.00 0.00 14 1016.0
20200331212019 68 61 4.0 7.0 0.00 0.00 0.00 15 1016.0
20200331211042 67 31 5.0 15.0 0.00 0.00 0.00 15 1015.8
20200331210035 67 342 3.0 9.0 0.00 0.00 0.00 16 1016.0
20200331205026 67 51 3.0 9.0 0.00 0.00 0.00 16 1016.2
20200331204019 67 54 2.0 12.0 0.00 0.00 0.00 15 1016.3
20200331203043 67 46 6.0 15.0 0.00 0.00 0.00 17 1016.5
20200331202034 67 29 4.0 9.0 0.00 0.00 0.00 18 1016.7
20200331201026 67 20 1.0 7.0 0.00 0.00 0.00 17 1016.8
20200331200031 66 10 3.0 9.0 0.00 0.00 0.00 19 1017.0
20200331195042 66 349 3.0 9.0 0.00 0.00 0.00 19 1017.2
20200331194034 65 323 3.0 7.0 0.00 0.00 0.00 20 1017.4
20200331193027 65 10 4.0 7.0 0.00 0.00 0.00 20 1017.4
20200331192018 64 30 2.0 7.0 0.00 0.00 0.00 21 1017.4
20200331191042 64 16 4.0 12.0 0.00 0.00 0.00 21 1017.6
20200331190034 63 7 3.0 12.0 0.00 0.00 0.00 22 1017.7
20200331185016 63 15 3.0 9.0 0.00 0.00 0.00 22 1017.7
20200331184031 63 38 4.0 9.0 0.00 0.00 0.00 21 1017.9
20200331183026 62 11 3.0 7.0 0.00 0.00 0.00 21 1018.1
20200331182034 62 38 2.0 12.0 0.00 0.00 0.00 20 1018.1
20200331181026 62 332 3.0 7.0 0.00 0.00 0.00 22 1018.2
20200331180018 61 351 3.0 9.0 0.00 0.00 0.00 24 1018.1
20200331175042 61 4 5.0 12.0 0.00 0.00 0.00 24 1018.1
20200331174034 61 43 5.0 12.0 0.00 0.00 0.00 24 1018.3
20200331173026 60 343 5.0 9.0 0.00 0.00 0.00 27 1018.3
20200331172018 60 35 3.0 9.0 0.00 0.00 0.00 28 1018.6
20200331171042 59 58 5.0 12.0 0.00 0.00 0.00 29 1018.5
20200331170018 59 41 5.0 12.0 0.00 0.00 0.00 30 1018.3
20200331165039 59 17 6.0 12.0 0.00 0.00 0.00 30 1018.6
20200331164018 59 18 7.0 15.0 0.00 0.00 0.00 31 1018.5
20200331163023 58 18 7.0 15.0 0.00 0.00 0.00 30 1018.5
20200331162034 58 20 7.0 12.0 0.00 0.00 0.00 31 1018.4
20200331161026 58 358 7.0 12.0 0.00 0.00 0.00 32 1018.5
20200331160018 57 34 6.0 12.0 0.00 0.00 0.00 32 1018.1
20200331155031 56 29 6.0 19.0 0.00 0.00 0.00 32 1018.2
20200331154034 55 22 7.0 15.0 0.00 0.00 0.00 34 1018.1
20200331153026 55 25 8.0 17.0 0.00 0.00 0.00 34 1017.9
20200331152018 55 36 7.0 15.0 0.00 0.00 0.00 36 1017.8
20200331151042 55 15 8.0 15.0 0.00 0.00 0.00 35 1017.8
20200331150034 55 29 8.0 17.0 0.00 0.00 0.00 37 1017.7
20200331145015 55 19 8.0 17.0 0.00 0.00 0.00 37 1017.8
20200331144019 54 30 6.0 15.0 0.00 0.00 0.00 37 1017.6
20200331143042 54 22 4.0 15.0 0.00 0.00 0.00 37 1017.6
20200331142034 54 9 5.0 19.0 0.00 0.00 0.00 38 1017.4
20200331141026 54 5 6.0 15.0 0.00 0.00 0.00 39 1017.3
20200331140018 54 31 4.0 12.0 0.00 0.00 0.00 39 1017.1
20200331135042 53 15 6.0 17.0 0.00 0.00 0.00 40 1016.9
20200331134034 53 5 5.0 15.0 0.00 0.00 0.00 40 1016.6
20200331133027 53 357 6.0 12.0 0.00 0.00 0.00 41 1016.3
20200331132018 53 355 5.0 15.0 0.00 0.00 0.00 42 1016.3
20200331131042 53 16 8.0 17.0 0.00 0.00 0.00 42 1016.2
20200331130034 53 20 8.0 19.0 0.00 0.00 0.00 43 1016.2
20200331125026 53 29 6.0 12.0 0.00 0.00 0.00 43 1016.3
20200331124018 53 30 4.0 12.0 0.00 0.00 0.00 42 1016.2
20200331123042 53 6 4.0 9.0 0.00 0.00 0.00 39 1016.0
20200331122034 53 25 3.0 9.0 0.00 0.00 0.00 27 1015.5
20200331121026 54 351 5.0 12.0 0.00 0.00 0.00 21 1015.4
20200331120030 55 6 4.0 9.0 0.00 0.00 0.00 20 1015.1
20200331115042 56 359 4.0 9.0 0.00 0.00 0.00 23 1014.6
20200331114034 56 355 5.0 9.0 0.00 0.00 0.00 23 1014.5
20200331113039 56 344 4.0 9.0 0.00 0.00 0.00 23 1014.1
20200331112018 57 338 4.0 9.0 0.00 0.00 0.00 23 1013.9
20200331111042 57 1 4.0 9.0 0.00 0.00 0.00 22 1013.8
20200331110033 57 328 2.0 7.0 0.00 0.00 0.00 21 1013.6
20200331105025 57 334 5.0 15.0 0.00 0.00 0.00 21 1013.6
20200331104018 57 330 3.0 9.0 0.00 0.00 0.00 21 1013.5
20200331103042 57 339 2.0 7.0 0.00 0.00 0.00 21 1013.4
20200331102034 57 328 3.0 7.0 0.00 0.00 0.00 21 1013.4
20200331101026 58 349 2.0 4.0 0.00 0.00 0.00 21 1013.4
20200331100017 58 333 3.0 9.0 0.00 0.00 0.00 21 1013.4
20200331095044 59 343 3.0 7.0 0.00 0.00 0.00 21 1013.2
20200331094033 59 295 2.0 4.0 0.00 0.00 0.00 21 1013.3
20200331093028 60 331 2.0 7.0 0.00 0.00 0.00 20 1013.5
20200331091042 61 315 2.0 7.0 0.00 0.00 0.00 19 1013.4
20200331090034 62 319 3.0 7.0 0.00 0.00 0.00 19 1013.4
20200331085026 62 298 2.0 4.0 0.00 0.00 0.00 20 1013.4
20200331084017 63 320 1.0 7.0 0.00 0.00 0.00 19 1013.6
20200331083022 63 294 3.0 9.0 0.00 0.00 0.00 19 1013.6
20200331082034 63 301 2.0 9.0 0.00 0.00 0.00 19 1013.8
20200331081041 63 301 3.0 9.0 0.00 0.00 0.00 19 1013.4
20200331080030 64 308 5.0 9.0 0.00 0.00 0.00 19 1013.5
20200331075025 64 301 4.0 9.0 0.00 0.00 0.00 18 1013.4
20200331074034 64 295 3.0 7.0 0.00 0.00 0.00 20 1013.4
20200331073026 64 313 4.0 9.0 0.00 0.00 0.00 21 1013.6
20200331072017 65 318 5.0 12.0 0.00 0.00 0.00 21 1013.8
20200331071042 65 296 6.0 15.0 0.00 0.00 0.00 21 1013.8
20200331070018 65 301 8.0 17.0 0.00 0.00 0.00 22 1013.8
20200331065025 65 288 7.0 17.0 0.00 0.00 0.00 22 1013.9
20200331064018 65 307 7.0 15.0 0.00 0.00 0.00 22 1014.0
20200331063042 65 296 7.0 15.0 0.00 0.00 0.00 22 1014.1
20200331062023 64 306 8.0 17.0 0.00 0.00 0.00 24 1014.0
20200331061026 64 296 10.0 17.0 0.00 0.00 0.00 29 1013.6
20200331060017 64 281 9.0 15.0 0.00 0.00 0.00 29 1013.4